Date,TemperatureHighF,TemperatureAvgF,TemperatureLowF,DewpointHighF,DewpointAvgF,DewpointLowF,HumidityHigh,HumidityAvg,HumidityLow,PressureMaxIn,PressureMinIn,WindSpeedMaxMPH,WindSpeedAvgMPH,GustSpeedMaxMPH,PrecipitationSumIn
2012-12-1,41.6,33.8,27.3,39.8,32.1,26.3,99,94,84,29.98,29.91,8,1,8,0.01
2012-12-2,42.6,35.4,30.5,35.8,31.9,28.6,94,87,70,30.03,29.93,7,0,7,0.02
2012-12-3,49.6,42.9,35.9,49.2,41.0,34.3,99,93,80,29.92,29.62,14,2,14,0.18
2012-12-4,45.6,38.3,32.4,39.0,35.2,31.1,97,89,76,29.64,29.59,11,2,14,0.00
2012-12-5,39.4,34.6,31.1,35.1,31.8,27.7,98,90,80,30.00,29.58,10,1,10,0.02
2012-12-6,41.3,33.6,26.6,40.5,31.1,25.1,97,90,79,30.06,29.44,15,1,15,0.14
2012-12-7,43.8,39.9,35.3,40.0,36.2,33.9,97,87,70,29.98,29.41,16,2,16,0.05
2012-12-8,44.2,39.5,36.6,39.7,36.6,34.5,94,90,81,30.28,29.98,6,1,6,0.00
2012-12-9,47.7,43.1,38.1,42.8,39.5,35.8,97,87,76,30.23,29.98,16,3,16,0.02
2012-12-10,42.1,38.0,33.7,36.7,34.4,31.6,92,87,80,30.35,30.02,10,1,10,0.00
2012-12-11,36.5,31.2,25.5,33.6,29.9,24.8,97,95,88,30.43,30.32,6,0,6,0.01
2012-12-12,34.6,29.6,23.6,33.6,28.4,22.6,98,95,87,30.32,29.88,5,0,5,0.00
2012-12-13,34.3,31.7,29.0,33.4,29.7,27.5,97,92,85,29.88,29.50,12,1,12,0.01
2012-12-14,49.8,42.4,34.3,48.8,41.7,33.4,99,97,88,29.51,28.78,25,6,25,0.21
2012-12-15,52.6,46.9,43.9,47.7,44.4,41.7,95,91,82,29.44,29.06,17,4,17,0.01
2012-12-16,50.4,43.8,39.3,45.2,41.9,38.6,98,93,82,29.56,29.44,9,1,9,0.01
2012-12-17,48.1,43.2,39.6,44.0,41.2,39.1,98,93,82,29.68,29.46,11,2,11,0.02
2012-12-18,45.7,42.9,39.7,42.6,40.8,38.1,97,92,88,30.11,29.68,10,1,10,0.00
2012-12-19,45.5,42.0,37.6,43.5,40.5,36.8,98,95,86,30.11,29.81,23,5,23,0.22
2012-12-20,49.2,46.2,43.6,48.9,45.7,43.1,99,98,96,29.81,29.45,18,5,18,0.54
2012-12-21,51.0,45.1,42.5,47.5,43.8,41.3,99,95,82,29.94,29.60,10,1,10,0.01
2012-12-22,55.1,49.7,42.7,54.8,49.2,42.2,99,98,96,29.93,29.52,20,4,20,0.46
2012-12-23,55.1,52.0,47.9,54.4,49.4,45.5,98,91,81,29.71,29.49,18,4,18,0.04
2012-12-24,53.1,48.6,45.9,51.6,47.5,44.8,99,96,91,29.70,29.27,19,3,19,0.24
2012-12-25,47.5,45.4,41.0,46.0,43.7,39.0,98,94,89,29.61,29.23,17,3,17,0.24
2012-12-26,49.6,44.5,38.2,48.9,42.7,37.4,98,94,85,29.74,29.49,17,4,17,0.12
2012-12-27,45.9,44.4,41.9,44.3,41.8,39.6,96,91,86,30.13,29.44,15,3,15,0.05
2012-12-28,53.4,48.4,41.6,51.8,46.9,39.7,99,95,89,30.14,29.83,19,4,19,0.13
2012-12-29,53.1,49.4,43.4,49.9,46.5,40.1,96,90,82,29.83,29.45,22,6,22,0.05
2012-12-30,51.6,45.3,40.9,47.4,41.1,36.9,89,85,81,29.87,29.62,22,7,27,0.02
2012-12-31,51.9,50.4,47.8,49.8,48.3,46.9,97,93,85,29.83,29.42,24,6,24,0.14